SCP
0 0 0 0 0 0 0 0 0 0 0 0 0 0 0 0 0 0 0 0 0 0
0 0 0 0 0 0 0 0 0 0 0 0 0 0 0 0 0 0 0 0 0 0
0 0 0 0 0 0 0 0 0 0 0 0 0 0 0 0 0 0 0 0 0 0
-0 -0 -0 -0 0 0 0 0 0 0 0 0 0 0 0 0 0 0 0 0 0 0
-0 -0 -0 -0 -0 -0 0 0 0 0 0 0 0 0 0 0 0 0 0 0 0 0
-0 -0 -0 -0 -0 -0 -0 -0 0 0 0 0 0 0 0 0 0 0 0 0 0 0
0 0 0 0 -0 -0 -0 0 0 0 0 0 0 0 0 0 0 0 0 0 0 0
0 0 0 0 0 0 0 0 -0 -0 -0 -0 0 0 0 0 0 0 0 0 0 0
0 0 0 -0 -0 -0 0 0 0 0 0 0 0 0 0 0 0 0 0 0 0 0
0 0 0 0 0 0 0 0 0 0 0 0 0 0 0 0 0 0 0 0 0 0
0 0 0 0 0 0 0 0 0 0 0 0 0 0 0 0 0 0 0 0 0 0
0 0 0 0 0 0 0 0 0 0 0 0 0 0 0 0 0 0 0 0 0 0
0 0 0 0 0 0 0 0 0 0 0 0 0 0 0 0 0 0 0 0 0 0
0 0 0 0 0 0 0 0 0 0 0 0 0 0 0 0 0 0 0 0 0 0
Wind_Speed_500mb
29 32 32 31 31 32 34 35 35 34 32 33 37 43 44 47 52 54 63 74 76 78
33 31 32 33 36 37 37 39 41 42 39 38 36 36 44 53 55 57 61 67 70 76
33 34 33 35 38 40 42 46 50 51 51 52 48 46 45 45 53 62 63 70 72 71
39 42 44 46 48 49 47 48 53 56 58 60 59 57 56 54 53 54 62 68 71 71
48 50 53 55 57 60 62 61 60 61 63 63 64 66 65 63 59 58 58 61 67 69
54 59 65 67 68 72 75 77 75 75 74 71 69 70 70 72 70 67 64 62 63 63
66 71 74 78 81 84 85 86 85 84 84 83 83 80 78 75 78 78 76 71 66 62
75 83 83 85 86 88 91 93 94 95 97 97 95 94 91 90 88 88 88 85 80 72
85 88 89 90 96 102 105 107 108 111 111 111 111 109 107 103 94 96 99 99 95 88
82 87 95 99 103 108 111 114 116 109 105 113 124 127 120 112 93 100 104 106 108 108
85 90 94 100 107 113 110 113 114 117 115 106 116 100 88 83 81 89 105 115 117 113
85 89 96 102 106 111 115 122 125 123 114 106 120 107 97 91 91 99 110 112 113 120
95 96 98 103 107 108 105 111 112 119 116 116 125 113 101 97 98 101 101 106 116 108
97 100 102 103 98 94 92 91 92 96 97 96 96 97 80 77 82 93 97 97 94 92
Wind_Direction_500mb
23 18 12 7 2 356 352 346 339 331 325 316 304 292 281 277 279 274 266 263 263 263
4 2 359 354 348 345 343 338 336 333 329 325 319 306 294 284 276 276 275 270 265 264
351 347 343 338 333 331 331 329 327 325 325 323 322 319 312 302 290 280 274 273 271 268
347 343 339 333 328 330 326 322 321 319 317 318 319 318 315 312 307 297 287 277 271 271
337 333 329 329 329 326 324 323 318 313 311 311 312 311 311 309 309 304 299 292 285 278
333 330 329 326 322 322 322 318 315 312 309 308 306 301 300 301 302 301 301 298 293 290
326 326 324 321 318 316 314 312 311 309 307 305 303 300 297 293 292 293 293 294 293 294
319 320 318 315 314 312 310 309 308 306 304 302 299 297 297 296 294 290 289 288 290 292
312 312 311 311 310 308 307 304 301 298 296 293 291 291 292 291 289 288 289 289 288 286
305 307 307 306 304 302 301 300 299 297 297 295 293 290 289 288 287 287 284 283 284 285
307 304 303 301 299 298 295 292 291 290 288 288 287 286 286 287 287 280 279 279 279 280
305 300 298 296 296 295 294 292 290 288 286 285 284 285 285 286 285 283 281 280 278 277
310 309 307 306 304 302 298 294 292 289 288 286 284 286 286 284 283 282 280 279 280 279
314 313 311 310 309 307 305 301 299 298 299 299 298 299 295 290 283 280 281 278 276 276
Wind_Speed_850mb
29 32 32 31 31 32 34 35 35 34 32 33 37 43 44 47 52 54 63 74 76 78
33 31 32 33 36 37 37 39 41 42 39 38 36 36 44 53 55 57 61 67 70 76
33 34 33 35 38 40 42 46 50 51 51 52 48 46 45 45 53 62 63 70 72 71
39 42 44 46 48 49 47 48 53 56 58 60 59 57 56 54 53 54 62 68 71 71
48 50 53 55 57 60 62 61 60 61 63 63 64 66 65 63 59 58 58 61 67 69
54 59 65 67 68 72 75 77 75 75 74 71 69 70 70 72 70 67 64 62 63 63
66 71 74 78 81 84 85 86 85 84 84 83 83 80 78 75 78 78 76 71 66 62
75 83 83 85 86 88 91 93 94 95 97 97 95 94 91 90 88 88 88 85 80 72
85 88 89 90 96 102 105 107 108 111 111 111 111 109 107 103 94 96 99 99 95 88
82 87 95 99 103 108 111 114 116 109 105 113 124 127 120 112 93 100 104 106 108 108
85 90 94 100 107 113 110 113 114 117 115 106 116 100 88 83 81 89 105 115 117 113
85 89 96 102 106 111 115 122 125 123 114 106 120 107 97 91 91 99 110 112 113 120
95 96 98 103 107 108 105 111 112 119 116 116 125 113 101 97 98 101 101 106 116 108
97 100 102 103 98 94 92 91 92 96 97 96 96 97 80 77 82 93 97 97 94 92
Wind_Direction_850mb
23 18 12 7 2 356 352 346 339 331 325 316 304 292 281 277 279 274 266 263 263 263
4 2 359 354 348 345 343 338 336 333 329 325 319 306 294 284 276 276 275 270 265 264
351 347 343 338 333 331 331 329 327 325 325 323 322 319 312 302 290 280 274 273 271 268
347 343 339 333 328 330 326 322 321 319 317 318 319 318 315 312 307 297 287 277 271 271
337 333 329 329 329 326 324 323 318 313 311 311 312 311 311 309 309 304 299 292 285 278
333 330 329 326 322 322 322 318 315 312 309 308 306 301 300 301 302 301 301 298 293 290
326 326 324 321 318 316 314 312 311 309 307 305 303 300 297 293 292 293 293 294 293 294
319 320 318 315 314 312 310 309 308 306 304 302 299 297 297 296 294 290 289 288 290 292
312 312 311 311 310 308 307 304 301 298 296 293 291 291 292 291 289 288 289 289 288 286
305 307 307 306 304 302 301 300 299 297 297 295 293 290 289 288 287 287 284 283 284 285
307 304 303 301 299 298 295 292 291 290 288 288 287 286 286 287 287 280 279 279 279 280
305 300 298 296 296 295 294 292 290 288 286 285 284 285 285 286 285 283 281 280 278 277
310 309 307 306 304 302 298 294 292 289 288 286 284 286 286 284 283 282 280 279 280 279
314 313 311 310 309 307 305 301 299 298 299 299 298 299 295 290 283 280 281 278 276 276